#timestamp,LO_Frequency,Hit,StdDev 
1503003615.2,286046999.6,N,0.9
1503003635.0,286046999.5,N,0.9
1503003635.9,286046999.5,N,0.9
1503003655.8,286046996.9,Y,0.0
1503003675.6,286046997.0,P,1.3
1503003695.4,286046999.0,N,1.1
1503003715.3,286046996.9,N,1.2
1503003735.1,286046997.6,N,1.1
1503003755.8,286046997.5,N,1.0
1503003775.7,286046996.0,Y,0.0
1503003795.5,286046999.6,P,0.8
1503003815.3,286046998.9,N,0.7
1503003835.2,286046998.4,N,0.6
1503003855.0,286046998.4,N,0.6
1503003855.9,286046998.4,N,0.5
1503003875.7,286046998.3,Y,0.0
1503003895.6,286047011.9,P,6.6
1503003915.4,286046999.4,N,6.1
1503003935.2,286046999.2,N,5.6
1503003955.1,286046997.0,N,5.4
1503003956.0,286046997.0,N,5.2
1503003975.8,286046999.1,N,4.8
1503003995.6,286046999.5,N,4.5
1503004015.5,286046996.7,N,4.4
1503004035.3,286046997.4,N,4.2
1503004055.1,286046998.0,N,4.1
1503004075.9,286046997.3,N,3.9
1503004095.7,286046997.7,N,3.8
1503004115.5,286046994.9,N,3.8
1503004135.4,286046995.1,N,3.8
1503004155.2,286046995.2,N,3.8
1503004175.0,286046997.1,N,3.7
1503004175.9,286046997.1,N,3.6
1503004195.8,286046999.2,N,3.5
1503004215.6,286046997.4,N,3.4
1503004235.4,286046997.4,N,3.3
1503004255.3,286046994.9,N,3.3
1503004275.1,286046997.5,N,3.3
1503004295.8,286046998.0,N,3.2
1503004315.7,286046995.2,N,3.2
1503004335.5,286046997.6,N,3.1
1503004355.3,286046995.1,N,3.1
1503004375.2,286046996.0,N,3.1
1503004395.0,286046993.3,N,3.1
1503004395.9,286046993.3,N,3.2
1503004415.7,286046996.4,N,3.2
1503004435.6,286046994.9,N,1.7
1503004455.4,286046998.0,N,1.6
1503004475.2,286046997.2,N,1.6
1503004495.1,286046995.4,N,1.6
1503004496.0,286046995.4,N,1.6
1503004515.8,286046996.2,N,1.5
1503004535.7,286046995.6,N,1.4
1503004555.5,286046995.4,Y,0.0
1503004575.3,286047001.2,P,2.4
1503004595.2,286046998.3,N,2.0
1503004615.9,286046999.0,N,1.7
1503004635.7,286046999.2,N,1.6
1503004655.6,286046999.2,N,1.4
1503004675.4,286046999.1,N,1.3
1503004695.2,286046996.7,N,1.4
1503004715.1,286046999.5,N,1.4
1503004716.0,286046999.5,N,1.3
1503004735.8,286046996.6,N,1.4
1503004755.6,286046999.6,N,1.4
1503004775.5,286046996.5,N,1.5
1503004795.3,286046997.5,N,1.4
1503004815.1,286046998.8,N,1.4
1503004835.9,286046999.6,N,1.4
1503004855.7,286046998.9,N,1.3
1503004875.5,286046999.2,N,1.3
1503004895.4,286046996.9,N,1.3
1503004915.2,286046996.5,N,1.4
1503004935.0,286046997.5,N,1.3
1503004935.9,286046997.5,N,1.3
1503004955.8,286046997.7,N,1.3
1503004975.6,286046997.2,N,1.3
1503004995.4,286046997.8,N,1.3
1503005015.3,286046997.9,N,1.2
1503005035.1,286046997.2,N,1.2
1503005036.0,286046997.2,N,1.2
1503005055.8,286046997.1,N,1.2
1503005075.7,286046997.7,N,1.2
1503005095.5,286046997.7,N,1.2
1503005115.3,286046997.9,N,1.0
1503005135.2,286046997.8,N,1.0
1503005155.9,286046998.0,N,1.0
1503005175.7,286046997.8,N,1.0
1503005195.6,286046997.7,N,0.9
1503005215.4,286046996.5,Y,0.0
1503005235.2,286046998.1,P,0.1
1503005255.1,286046998.6,P,0.3
1503005256.0,286046998.6,P,0.3
1503005275.8,286046998.5,Y,0.0
1503005295.6,286047002.3,P,2.0
1503005315.5,286047002.1,N,1.8
1503005335.3,286047002.5,N,1.7
1503005355.1,286047004.4,N,2.0
1503005375.9,286047003.2,N,1.9
1503005395.7,286047004.3,N,1.9
1503005415.5,286047001.4,N,1.8
1503005435.4,286047003.5,N,1.7
1503005455.2,286047004.1,N,1.7
1503005475.0,286047003.3,N,1.7
1503005475.9,286047003.3,N,1.6
1503005495.8,286047003.3,N,1.5
1503005515.6,286047005.9,Y,0.0
1503005535.4,286047001.8,P,0.5
1503005555.3,286047001.3,N,0.6
1503005575.1,286047004.4,P,1.2
1503005595.8,286047001.9,N,1.1
1503005615.7,286047001.5,N,1.1
1503005635.5,286047001.5,N,1.0
1503005655.3,286047001.7,N,1.0
1503005675.2,286047001.9,N,0.9
1503005695.0,286047003.7,Y,0.0
1503005695.9,286047003.7,P,0.8
1503005715.8,286047000.1,N,1.5
1503005735.6,286047000.3,N,1.5
1503005755.4,286047000.3,N,1.4
1503005775.3,286046999.9,N,1.4
1503005795.1,286047000.3,N,1.3
1503005796.0,286047000.3,N,1.2
1503005815.8,286047000.4,N,1.2
1503005835.7,286047000.4,N,1.1
1503005855.5,286047000.2,N,1.1
1503005875.3,286047002.8,N,1.2
1503005895.2,286047002.0,N,1.2
1503005915.9,286047002.0,N,1.2
1503005935.7,286047001.9,N,1.1
1503005955.6,286047011.9,Y,0.0
1503005975.4,286046999.7,P,0.7
1503005995.2,286046999.7,N,0.7
1503006015.1,286047002.7,P,1.2
1503006016.0,286047002.7,N,1.3
1503006035.8,286046999.8,N,1.3
1503006055.6,286047002.4,N,1.3
1503006075.5,286047002.6,N,1.3
1503006095.3,286047001.6,N,1.3
1503006115.1,286047002.1,N,1.2
1503006135.9,286047002.1,N,1.2
1503006155.7,286047001.8,N,1.1
1503006175.5,286047001.8,N,1.1
1503006195.4,286047001.3,N,1.0
1503006215.2,286047002.0,N,1.0
1503006235.0,286047002.4,N,1.0
1503006236.0,286047002.4,N,1.0
1503006255.8,286047002.8,N,1.0
1503006275.6,286047002.1,N,1.0
1503006295.5,286047002.4,N,1.0
1503006315.3,286047002.2,N,0.9
1503006335.1,286047002.5,N,0.9
1503006355.9,286047002.5,N,0.9
1503006375.7,286047001.8,N,0.9
1503006395.5,286047001.8,N,0.9
1503006415.4,286047004.0,Y,0.0
1503006435.2,286047002.8,P,0.5
1503006455.0,286047002.5,P,0.4
1503006455.9,286047002.5,P,0.3
1503006475.8,286047002.3,Y,0.0
1503006495.6,286046998.9,P,1.8
1503006515.4,286046996.6,N,2.4
1503006535.3,286046999.3,N,2.1
1503006555.1,286046998.8,N,1.9
1503006575.8,286046998.8,N,1.7
1503006595.7,286046999.2,N,1.6
1503006615.5,286046998.3,N,1.5
1503006635.3,286046998.5,N,1.4
1503006655.2,286047001.2,N,1.5
1503006675.0,286047000.8,N,1.5
1503006675.9,286047000.8,N,1.5
1503006695.7,286047001.2,N,1.5
1503006715.6,286047000.9,N,1.5
1503006765.4,286047000.6,E,nan
1503006775.4,286046998.4,N,0.0
1503006795.2,286046998.7,P,0.2
1503006815.0,286047001.1,P,1.2
1503006815.9,286047001.1,N,1.3
1503006835.8,286046998.5,N,1.3
1503006855.6,286047001.0,N,1.3
1503006875.4,286047000.7,N,1.2
1503006895.3,286047001.0,N,1.2
1503006915.1,286047000.7,N,1.1
1503006935.8,286046998.3,N,1.2
1503006955.7,286046998.4,N,1.2
1503006975.5,286047001.1,N,1.2
1503006995.3,286047000.8,N,1.2
1503007015.2,286046998.2,N,1.3
1503007035.0,286047001.0,N,1.2
1503007035.9,286047001.0,N,1.2
1503007055.7,286046999.9,N,1.2
1503007075.6,286047000.5,N,1.2
1503007095.4,286046998.2,N,1.2
1503007115.2,286046998.5,N,1.2
1503007135.1,286047000.8,N,1.2
1503007136.0,286047000.8,N,1.2
1503007155.8,286047001.1,N,1.2
1503007175.6,286047001.2,N,1.2
1503007195.5,286047000.4,N,1.2
